User: anonymous   Login
Location: Unspecified
(0.0000°N, 0.0000°E)
Time: 19:07:19
(UTC+00:00)
Language:

Envisat - Orbit

View from above orbital plane
View from above orbital plane
View from above satellite
View from above satellite

Ground track
Ground track

The orbit data is extracted from the following two-line orbital elements,

1 27386U 02009A   21266.96511622  .00000034  00000-0  24679-4 0  9995
2 27386  98.1570 256.0261 0001242  86.3611 297.8740 14.38043095 25230
Epoch (UTC): 23 September 2021 23:09:46
Eccentricity: 0.0001242
inclination: 98.1570°
perigee height: 764 km
apogee height: 766 km
right ascension of ascending node: 256.0261°
argument of perigee: 86.3611°
revolutions per day: 14.38043095
mean anomaly at epoch: 297.8740°
orbit number at epoch: 2523

The dashed part of the orbit path shows where the satellite is in the earth's shadow,  

DLR